User: anonymous   Login
Location: Unspecified
(0.0000°N, 0.0000°E)
Time: 03:04:11
(UTC+02:00)
Language:

Cosmos 1536 - Orbit

View from above orbital plane
View from above orbital plane
View from above satellite
View from above satellite

Ground track
Ground track

The orbit data is extracted from the following two-line orbital elements,

1 14699U 84013A   15211.16686143  .00000400  00000-0  26811-4 0  9996
2 14699 082.5256 275.2232 0011668 236.4969 123.5143 15.04039813709631
Epoch (UTC): 30 July 2015 04:00:16
Eccentricity: 0.0011668
inclination: 82.5256°
perigee height: 546 km
apogee height: 562 km
right ascension of ascending node: 275.2232°
argument of perigee: 236.4969°
revolutions per day: 15.04039813
mean anomaly at epoch: 123.5143°
orbit number at epoch: 70963

The dashed part of the orbit path shows where the satellite is in the earth's shadow,  

DLR